AMAZONAS 5

Last updated on Thu Aug 13 2026 00:03:01 GMT+0000 (Coordinated Universal Time)

1 42934U 17053A 26224.41743502 -.00000300 00000+0 00000+0 0 9992 2 42934 0.0399 292.0755 0001123 236.0456 242.0111 1.00271952 32607
UTC large
Height (km)
Speed (km/s)
/
Latitude / Longitude
Inclination (degrees)
Orbital Period (minutes)
Azimuth
Elevation
Range (km)
Doppler Factor

Next 0 passes for location: London (51.5072 / 0.1276)

No passes found over London.
AMAZONAS 5